Time,TemperatureF,DewpointF,PressureIn,WindDirection,WindDirectionDegrees,WindSpeedMPH,WindSpeedGustMPH,Humidity,HourlyPrecipIn,Conditions,Clouds,dailyrainin,SoftwareType,DateUTC
2013-01-04 00:03:00,13.0,10.0,-100.00,SW,235,11.0,16.0,92,0.00,,,0.00,,2013-01-04 05:03:00,
2013-01-04 00:12:00,13.0,12.0,-100.00,SW,230,12.0,16.0,92,0.00,,,0.00,,2013-01-04 05:12:00,
2013-01-04 00:22:00,13.0,12.0,-100.00,WSW,245,13.0,16.0,92,0.00,,,0.00,,2013-01-04 05:22:00,
2013-01-04 00:33:00,13.0,10.0,-100.00,WSW,240,11.0,14.0,92,0.00,,,0.00,,2013-01-04 05:33:00,
2013-01-04 00:42:00,14.0,12.0,-100.00,WSW,240,12.0,15.0,92,0.00,,,0.00,,2013-01-04 05:42:00,
2013-01-04 00:52:00,14.0,12.0,-100.00,WSW,245,12.0,16.0,92,0.00,,,0.00,,2013-01-04 05:52:00,
2013-01-04 01:02:00,14.0,12.0,-100.00,WSW,240,14.0,17.0,92,0.00,,,0.00,,2013-01-04 06:02:00,
2013-01-04 01:12:00,14.0,12.0,-100.00,WSW,240,7.0,17.0,92,0.00,,,0.00,,2013-01-04 06:12:00,
2013-01-04 01:22:00,14.0,12.0,-100.00,WSW,250,11.0,16.0,92,0.00,,,0.00,,2013-01-04 06:22:00,
2013-01-04 01:32:00,13.0,12.0,-100.00,West,260,7.0,13.0,92,0.00,,,0.00,,2013-01-04 06:32:00,
2013-01-04 01:42:00,14.0,12.0,-100.00,WSW,250,11.0,13.0,92,0.00,,,0.00,,2013-01-04 06:42:00,
2013-01-04 01:52:00,14.0,12.0,-100.00,WSW,250,9.0,12.0,92,0.00,,,0.00,,2013-01-04 06:52:00,
2013-01-04 02:02:00,14.0,12.0,-100.00,WSW,250,11.0,13.0,92,0.00,,,0.00,,2013-01-04 07:02:00,
2013-01-04 02:12:00,15.0,12.0,-100.00,WSW,255,12.0,16.0,92,0.00,,,0.00,,2013-01-04 07:12:00,
2013-01-04 02:22:00,15.0,12.0,-100.00,WSW,240,11.0,16.0,91,0.00,,,0.00,,2013-01-04 07:22:00,
2013-01-04 02:32:00,15.0,14.0,-100.00,WSW,250,9.0,14.0,91,0.00,,,0.00,,2013-01-04 07:32:00,
2013-01-04 02:42:00,16.0,14.0,-100.00,WSW,255,11.0,16.0,91,0.00,,,0.00,,2013-01-04 07:42:00,
2013-01-04 02:52:00,16.0,14.0,-100.00,WSW,255,10.0,14.0,91,0.00,,,0.00,,2013-01-04 07:52:00,
2013-01-04 03:02:00,16.0,14.0,-100.00,WSW,250,10.0,13.0,91,0.00,,,0.00,,2013-01-04 08:02:00,
2013-01-04 03:12:00,16.0,14.0,-100.00,WSW,255,9.0,13.0,90,0.00,,,0.00,,2013-01-04 08:12:00,
2013-01-04 03:22:00,16.0,14.0,-100.00,WSW,250,10.0,12.0,90,0.00,,,0.00,,2013-01-04 08:22:00,
2013-01-04 03:32:00,16.0,14.0,-100.00,WSW,245,8.0,12.0,90,0.00,,,0.00,,2013-01-04 08:32:00,
2013-01-04 03:42:00,16.0,14.0,-100.00,WSW,250,11.0,12.0,90,0.00,,,0.00,,2013-01-04 08:42:00,
2013-01-04 03:52:00,17.0,14.0,-100.00,WSW,250,11.0,14.0,90,0.00,,,0.00,,2013-01-04 08:52:00,
2013-01-04 04:02:00,17.0,14.0,-100.00,West,260,9.0,14.0,89,0.00,,,0.00,,2013-01-04 09:02:00,